Find JCSAT 3A

NORAD ID: 29272 Int'l Des: 2006-033 Owner: JSAT Country: J operational
HEOCIRCULARGSOGEO

リアルタイム位置

3D地球を読み込み中...

JCSAT 3Aについて

説明を読み込み中...

次回通過

Passes for default location (London). Set your location on the main map for personalized predictions.

高度履歴

Loading altitude history...

軌道要素

1 29272U 06033A 26106.82231176 .00000000 00000-0 00000+0 0 9998
2 29272 0.0158 247.0985 0002017 146.0530 235.8435 1.00270359 47123
Epoch: Apr 16, 2026 • Age: 5 hours

現在のステータス

高度 35780.9 km
速度 3.08 km/s
衛星直下点 0.04°N, 127.97°E
打ち上げ日 Aug 11, 2006
運用期間 19.6 years
タイプ other

技術仕様

分類 Payload
質量 4048.00 kg
乾燥質量 1858.00 kg
総質量 4048.00 kg
長さ 5.50 m
直径 2.20 m
スパン 26.90 m
形状 Box + 2 Pan
製造者 LMCSS
バスタイプ A2100AX
フェーズステータス In Orbit
所有者/国 JSAT/J

Most Searched